Chicopee, MA

10:57 AM EDT on May 28, 2017 (GMT -0400)
Westover Air Reserve Base / Metropolitan Airport

Weather History for KCEF - June, 2013

Change the Weather History Date:

Wednesday, June 12, 2013

  Actual Average Record
Temperature  
Mean Temperature 62 °F -  
Max Temperature 72 °F 73 °F 89 °F (1997)
Min Temperature 50 °F 54 °F 44 °F (2004)
Degree Days  
Heating Degree Days 3    
Growing Degree Days 12 (Base 50)    
Moisture  
Dew Point 53 °F    
Average Humidity 69    
Maximum Humidity 98    
Minimum Humidity 49    
Precipitation  
Precipitation 0.00 in - - ()
Sea Level Pressure  
Sea Level Pressure 29.71 in    
Wind  
Wind Speed 13 mph (NW)    
Max Wind Speed 25 mph    
Max Gust Speed 32 mph    
Visibility 9 miles    
Events      
Averages and records for this station are not official NWS values.
T = Trace of Precipitation, MM = Missing Value Source: NWS Daily Summary

Daily Weather History Graph

Daily Weather History Graph

Search for Another Location

Airport or City:

Trip Planner

Search our weather history database for the weather conditions in past years. The results will help you decide how hot, cold, wet, or windy it might be!

Date:

Astronomy

Jun. 12, 2013 Rise Set
Actual Time 5:13 AM EDT 8:26 PM EDT
Civil Twilight 4:38 AM EDT 9:01 PM EDT
Nautical Twilight 3:54 AM EDT 9:45 PM EDT
Astronomical Twilight 3:00 AM EDT 10:39 PM EDT
Moon 8:53 AM EDT (6/12) 10:57 PM EDT (6/12)
Length of Visible Light 16h 22m
Length of Day
15h 13m
Waxing Crescent, 14% of the Moon is Illuminated
Jun 12
Waxing Crescent
Jun 16
First Quarter
Jun 23
Full
Jun 30
Last Quarter
Jul 8
New

Hourly Weather History & Observations

Time (EDT) Temp. Dew Point Humidity Pressure Visibility Wind Dir Wind Speed Gust Speed Precip Events Conditions
12:58 AM 60.8 °F 55.8 °F 83% 29.63 in 10.0 mi WNW 11.5 mph 18.4 mph N/A   Partly Cloudy
1:58 AM 61.0 °F 54.7 °F 80% 29.63 in 10.0 mi West 16.1 mph - N/A   Clear
2:58 AM 60.6 °F 53.6 °F 78% 29.62 in 10.0 mi WNW 15.0 mph 20.7 mph N/A   Scattered Clouds
3:01 AM 60.8 °F 53.6 °F 77% 29.61 in 10.0 mi West 10.4 mph 20.7 mph N/A   Mostly Cloudy
3:02 AM 60.8 °F 53.6 °F 77% 29.61 in 10.0 mi WNW 10.4 mph 20.7 mph N/A   Scattered Clouds
3:03 AM 60.8 °F 53.6 °F 77% 29.61 in 10.0 mi WNW 9.2 mph 20.7 mph N/A   Mostly Cloudy
3:58 AM 60.4 °F 53.2 °F 77% 29.62 in 10.0 mi WNW 15.0 mph - N/A   Mostly Cloudy
4:21 AM 59.0 °F 53.6 °F 82% 29.61 in 6.0 mi WNW 10.4 mph - N/A   Haze
4:29 AM 59.0 °F 53.6 °F 82% 29.62 in 3.0 mi WNW 10.4 mph - N/A   Haze
4:45 AM 60.8 °F 53.6 °F 77% 29.62 in 4.0 mi WNW 15.0 mph 19.6 mph N/A   Haze
4:58 AM 59.9 °F 53.2 °F 79% 29.65 in 4.0 mi WNW 12.7 mph - N/A   Haze
5:22 AM 60.8 °F 53.6 °F 77% 29.64 in 4.0 mi WNW 11.5 mph 20.7 mph N/A   Haze
5:47 AM 60.8 °F 53.6 °F 77% 29.65 in 2.5 mi WNW 13.8 mph - N/A   Haze
5:48 AM 60.8 °F 53.6 °F 77% 29.65 in 3.0 mi WNW 12.7 mph - N/A   Haze
5:58 AM 60.4 °F 53.4 °F 78% 29.67 in 10.0 mi NW 12.7 mph 17.3 mph N/A   Overcast
6:22 AM 60.8 °F 53.6 °F 77% 29.67 in 10.0 mi WNW 9.2 mph - N/A   Overcast
6:58 AM 61.0 °F 53.4 °F 76% 29.69 in 10.0 mi West 10.4 mph - N/A   Mostly Cloudy
7:58 AM 63.3 °F 54.1 °F 72% 29.69 in 10.0 mi West 10.4 mph - N/A   Mostly Cloudy
8:38 AM 64.4 °F 53.6 °F 68% 29.68 in 2.0 mi NW 16.1 mph 21.9 mph N/A   Haze
8:40 AM 64.4 °F 53.6 °F 68% 29.68 in 1.8 mi NW 13.8 mph 21.9 mph N/A   Haze
8:47 AM 64.4 °F 53.6 °F 68% 29.68 in 10.0 mi WNW 17.3 mph 24.2 mph N/A   Scattered Clouds
8:48 AM 64.4 °F 53.6 °F 68% 29.68 in 10.0 mi WNW 19.6 mph 24.2 mph N/A   Scattered Clouds
8:58 AM 65.5 °F 52.7 °F 63% 29.71 in 10.0 mi NW 13.8 mph 25.3 mph N/A   Mostly Cloudy
9:58 AM 66.9 °F 52.9 °F 61% 29.71 in 10.0 mi NNW 15.0 mph 26.5 mph N/A   Mostly Cloudy
10:58 AM 68.4 °F 52.9 °F 58% 29.71 in 10.0 mi WNW 21.9 mph 24.2 mph N/A   Mostly Cloudy
11:42 AM 68.0 °F 51.8 °F 56% 29.71 in 10.0 mi WNW 19.6 mph 31.1 mph N/A   Mostly Cloudy
11:58 AM 69.4 °F 52.3 °F 54% 29.73 in 10.0 mi NW 20.7 mph 29.9 mph N/A   Scattered Clouds
12:58 PM 70.5 °F 52.0 °F 52% 29.75 in 10.0 mi NW 19.6 mph 31.1 mph N/A   Scattered Clouds
1:58 PM 68.7 °F 52.0 °F 55% 29.76 in 10.0 mi NW 25.3 mph 31.1 mph N/A   Mostly Cloudy
2:58 PM 70.2 °F 51.3 °F 51% 29.77 in 10.0 mi NNW 20.7 mph 32.2 mph N/A   Overcast
3:58 PM 69.4 °F 50.0 °F 50% 29.76 in 10.0 mi NNW 15.0 mph 29.9 mph N/A   Overcast
3:59 PM 69.8 °F 50.0 °F 49% 29.75 in 10.0 mi NNE 18.4 mph 25.3 mph N/A   Mostly Cloudy
4:29 PM 69.8 °F 50.0 °F 49% 29.75 in 10.0 mi NNE 18.4 mph 31.1 mph N/A   Mostly Cloudy
4:58 PM 70.5 °F 52.0 °F 52% 29.77 in 10.0 mi North 16.1 mph 25.3 mph N/A   Mostly Cloudy
5:58 PM 69.3 °F 51.4 °F 53% 29.79 in 10.0 mi NNE 10.4 mph - N/A   Overcast
6:58 PM 68.2 °F 51.8 °F 56% 29.81 in 10.0 mi NNE 8.1 mph - N/A   Overcast
7:58 PM 66.7 °F 52.2 °F 59% 29.82 in 10.0 mi North 4.6 mph - N/A   Partly Cloudy
8:41 PM 64.4 °F 51.8 °F 64% 29.82 in 10.0 mi North 6.9 mph - N/A   Light Drizzle
8:58 PM 62.1 °F 52.0 °F 70% 29.84 in 10.0 mi NNW 4.6 mph - 0.00 in   Light Drizzle
9:00 PM 62.6 °F 51.8 °F 68% 29.82 in 10.0 mi NNW 4.6 mph - N/A   Clear
9:58 PM 56.5 °F 54.0 °F 91% 29.86 in 10.0 mi ENE 3.5 mph - 0.00 in   Clear
10:58 PM 54.0 °F 53.4 °F 98% 29.86 in 10.0 mi Calm Calm - N/A   Clear
11:58 PM 50.7 °F 50.2 °F 98% 29.84 in 10.0 mi East 2.3 mph - N/A   Clear